Hebron, NE

11:46 PM CST on December 10, 2019 (GMT -0600)
Hebron Municipal

Weather History for KHJH - November, 2019

Change the Weather History Date:

Sunday, November 17, 2019

  Actual Average Record
Temperature  
Mean Temperature 44 °F -  
Max Temperature 55 °F 52 °F 72 °F (1953)
Min Temperature 32 °F 28 °F 1 °F (1959)
Degree Days  
Heating Degree Days 22    
Moisture  
Dew Point 32 °F    
Average Humidity 65    
Maximum Humidity 85    
Minimum Humidity 35    
Precipitation  
Precipitation 0.00 in - - ()
Sea Level Pressure  
Sea Level Pressure 30.01 in    
Wind  
Wind Speed 7 mph (NW)    
Max Wind Speed 14 mph    
Max Gust Speed 20 mph    
Visibility 10 miles    
Events      
Averages and records for this station are not official NWS values.
T = Trace of Precipitation, MM = Missing Value Source: NWS Daily Summary

Daily Weather History Graph

Daily Weather History Graph

Search for Another Location

Airport or City:

Astronomy

Nov. 17, 2019 Rise Set
Actual Time 7:17 AM CST 5:12 PM CST
Civil Twilight 6:48 AM CST 5:41 PM CST
Nautical Twilight 6:15 AM CST 6:14 PM CST
Astronomical Twilight 5:43 AM CST 6:46 PM CST
Moon 9:50 PM CST (11/17) 12:04 PM CST (11/17)
Length of Visible Light 10h 52m
Length of Day
9h 54m
Waning Gibbous, 73% of the Moon is Illuminated
Nov 17
Waning Gibbous
Nov 19
Last Quarter
Nov 26
New
Dec 4
First Quarter
Dec 11
Full

Hourly Weather History & Observations

Time (CST) Temp. Windchill Dew Point Humidity Pressure Visibility Wind Dir Wind Speed Gust Speed Precip Events Conditions
12:15 AM 45.0 °F 42.6 °F 35.1 °F 68% 30.03 in 10.0 mi NW 4.6 mph - N/A   Clear
12:35 AM 43.7 °F 39.7 °F 34.7 °F 71% 30.03 in 10.0 mi NW 6.9 mph - N/A   Clear
12:55 AM 43.2 °F 40.5 °F 34.7 °F 72% 30.03 in 10.0 mi NW 4.6 mph - N/A   Clear
1:15 AM 42.1 °F 37.7 °F 34.9 °F 76% 30.03 in 10.0 mi NW 6.9 mph - N/A   Clear
1:35 AM 42.3 °F 37.3 °F 35.4 °F 77% 30.04 in 10.0 mi NW 8.1 mph - N/A   Clear
1:55 AM 43.7 °F 38.6 °F 36.7 °F 76% 30.04 in 10.0 mi NNW 9.2 mph - N/A   Clear
2:15 AM 44.6 °F 40.2 °F 37.4 °F 76% 30.04 in 10.0 mi NNW 8.1 mph - N/A   Clear
2:35 AM 44.6 °F 40.7 °F 37.6 °F 76% 30.04 in 10.0 mi NNW 6.9 mph - N/A   Scattered Clouds
2:55 AM 44.6 °F 40.7 °F 37.6 °F 76% 30.04 in 10.0 mi NNW 6.9 mph - N/A   Scattered Clouds
3:15 AM 44.2 °F 39.7 °F 37.4 °F 77% 30.05 in 10.0 mi NW 8.1 mph - N/A   Scattered Clouds
3:35 AM 43.9 °F 40.5 °F 37.6 °F 78% 30.05 in 10.0 mi NW 5.8 mph - N/A   Mostly Cloudy
3:55 AM 43.9 °F 40.5 °F 37.4 °F 78% 30.05 in 10.0 mi NW 5.8 mph - N/A   Overcast
4:15 AM 43.7 °F 40.3 °F 37.4 °F 78% 30.05 in 10.0 mi NW 5.8 mph - N/A   Scattered Clouds
4:35 AM 43.9 °F 38.3 °F 37.0 °F 77% 30.05 in 10.0 mi NW 10.4 mph - N/A   Clear
4:55 AM 43.9 °F 38.3 °F 36.5 °F 75% 30.05 in 10.0 mi NW 10.4 mph - N/A   Clear
5:35 AM 41.9 °F 37.5 °F 35.1 °F 77% 30.05 in 10.0 mi NW 6.9 mph - N/A   Clear
5:55 AM 40.3 °F 37.1 °F 34.3 °F 79% 30.06 in 10.0 mi NW 4.6 mph - N/A   Clear
6:15 AM 38.8 °F 33.8 °F 33.6 °F 82% 30.06 in 10.0 mi WNW 6.9 mph - N/A   Clear
6:35 AM 37.9 °F 32.7 °F 33.1 °F 83% 30.06 in 10.0 mi NW 6.9 mph - N/A   Clear
6:55 AM 37.4 °F 32.8 °F 32.9 °F 84% 30.06 in 10.0 mi NW 5.8 mph - N/A   Clear
7:15 AM 36.7 °F 32.0 °F 32.5 °F 85% 30.06 in 10.0 mi WNW 5.8 mph - N/A   Clear
7:35 AM 36.3 °F 32.5 °F 32.2 °F 85% 30.07 in 10.0 mi West 4.6 mph - N/A   Clear
7:55 AM 36.5 °F 33.9 °F 32.4 °F 85% 30.07 in 10.0 mi West 3.5 mph - N/A   Clear
8:35 AM 39.6 °F 33.5 °F 33.4 °F 79% 30.08 in 10.0 mi NW 9.2 mph - N/A   Clear
8:55 AM 41.2 °F 35.5 °F 33.6 °F 74% 30.09 in 10.0 mi NNW 9.2 mph 17.3 mph N/A   Clear
9:15 AM 42.4 °F 35.3 °F 33.8 °F 71% 30.09 in 10.0 mi NNW 13.8 mph - N/A   Clear
9:35 AM 44.1 °F 37.7 °F 34.0 °F 68% 30.09 in 10.0 mi NNW 12.7 mph - N/A   Clear
9:55 AM 45.9 °F 40.4 °F 34.2 °F 64% 30.09 in 10.0 mi NNW 11.5 mph 16.1 mph N/A   Clear
10:15 AM 46.8 °F - 33.8 °F 61% 30.09 in 10.0 mi NNW 12.7 mph - N/A   Clear
10:35 AM 47.8 °F - 33.8 °F 58% 30.08 in 10.0 mi North 13.8 mph 19.6 mph N/A   Clear
10:55 AM 49.5 °F - 33.4 °F 54% 30.07 in 10.0 mi North 10.4 mph - N/A   Clear
11:15 AM 50.4 °F - 33.3 °F 52% 30.07 in 10.0 mi NNW 10.4 mph - N/A   Clear
11:35 AM 51.1 °F - 33.1 °F 50% 30.06 in 10.0 mi NNW 11.5 mph - N/A   Clear
11:55 AM 51.6 °F - 32.9 °F 49% 30.05 in 10.0 mi NNW 13.8 mph 19.6 mph N/A   Clear
12:15 PM 52.7 °F - 32.7 °F 47% 30.04 in 10.0 mi North 11.5 mph - N/A   Clear
12:35 PM 53.2 °F - 33.1 °F 46% 30.03 in 10.0 mi NW 10.4 mph 16.1 mph N/A   Clear
12:55 PM 53.6 °F - 32.7 °F 45% 30.03 in 10.0 mi NNW 12.7 mph 18.4 mph N/A   Clear
1:15 PM 54.0 °F - 32.7 °F 45% 30.02 in 10.0 mi NNW 10.4 mph - N/A   Clear
1:35 PM 54.7 °F - 32.7 °F 43% 30.01 in 10.0 mi NNW 11.5 mph - N/A   Clear
1:55 PM 54.9 °F - 32.2 °F 42% 30.00 in 10.0 mi NNW 13.8 mph - N/A   Clear
2:35 PM 55.9 °F - 30.2 °F 37% 29.99 in 10.0 mi NNW 9.2 mph - N/A   Clear
2:55 PM 55.9 °F - 28.8 °F 35% 29.99 in 10.0 mi NNW 10.4 mph 16.1 mph N/A   Clear
3:15 PM 55.8 °F - 28.9 °F 36% 29.98 in 10.0 mi NW 11.5 mph 18.4 mph N/A   Clear
3:35 PM 55.6 °F - 28.4 °F 35% 29.98 in 10.0 mi NW 8.1 mph - N/A   Clear
3:55 PM 55.0 °F - 28.2 °F 36% 29.98 in 10.0 mi NW 9.2 mph - N/A   Clear
4:15 PM 54.5 °F - 27.9 °F 36% 29.98 in 10.0 mi NW 8.1 mph - N/A   Clear
4:35 PM 53.2 °F - 28.4 °F 38% 29.98 in 10.0 mi NW 5.8 mph - N/A   Clear
5:15 PM 47.8 °F - 29.5 °F 49% 29.97 in 10.0 mi Calm Calm - N/A   Clear
5:35 PM 43.7 °F - 28.9 °F 56% 29.97 in 10.0 mi Calm Calm - N/A   Clear
5:55 PM 41.9 °F - 28.4 °F 59% 29.97 in 10.0 mi Calm Calm - N/A   Clear
6:15 PM 40.5 °F - 28.4 °F 62% 29.97 in 10.0 mi Calm Calm - N/A   Clear
6:35 PM 38.1 °F - 27.3 °F 65% 29.96 in 10.0 mi Calm Calm - N/A   Clear
6:55 PM 37.8 °F - 28.0 °F 68% 29.96 in 10.0 mi Calm Calm - N/A   Clear
7:55 PM 34.3 °F - 27.9 °F 77% 29.94 in 10.0 mi Calm Calm - N/A   Clear
8:15 PM 32.9 °F - 27.1 °F 79% 29.94 in 10.0 mi Calm Calm - N/A   Clear
8:35 PM 34.3 °F - 27.7 °F 77% 29.94 in 10.0 mi Calm Calm - N/A   Clear
8:55 PM 34.5 °F - 27.5 °F 76% 29.93 in 10.0 mi Calm Calm - N/A   Clear
9:35 PM 32.7 °F - 27.1 °F 80% 29.92 in 10.0 mi Calm Calm - N/A   Clear
9:55 PM 32.4 °F - 27.3 °F 82% 29.92 in 10.0 mi Calm Calm - N/A   Clear
10:15 PM 32.7 °F - 27.7 °F 82% 29.91 in 10.0 mi Calm Calm - N/A   Clear
10:35 PM 32.9 °F 29.8 °F 28.2 °F 83% 29.90 in 10.0 mi South 3.5 mph - N/A   Clear
10:55 PM 39.6 °F 35.4 °F 29.3 °F 67% 29.89 in 10.0 mi South 5.8 mph - N/A   Clear
11:15 PM 40.1 °F 35.3 °F 29.1 °F 65% 29.89 in 10.0 mi SSW 6.9 mph - N/A   Clear
11:30 PM 40.3 °F 34.9 °F 29.3 °F 65% 29.88 in 10.0 mi South 8.1 mph - N/A   Clear
11:55 PM 40.6 °F 36.7 °F 29.3 °F 64% 29.88 in 10.0 mi SSW 5.8 mph - N/A   Clear